TimeEDT,TemperatureF,Dew PointF,Humidity,Sea Level PressureIn,VisibilityMPH,Wind Direction,Wind SpeedMPH,Gust SpeedMPH,PrecipitationIn,Events,Conditions,WindDirDegrees,DateUTC
12:00 AM,52.0,41.0,66,30.28,-9999.0,Calm,Calm,-,N/A,,Clear,0,2013-04-18 04:00:00
1:00 AM,46.0,39.0,76,30.29,-9999.0,Calm,Calm,-,N/A,,Clear,0,2013-04-18 05:00:00
2:00 AM,45.0,39.0,80,30.29,-9999.0,Calm,Calm,-,N/A,,Clear,0,2013-04-18 06:00:00
3:00 AM,51.1,42.1,71,30.29,-9999.0,Calm,Calm,-,N/A,,Overcast,0,2013-04-18 07:00:00
4:00 AM,50.0,41.0,71,30.28,-9999.0,East,4.6,-,N/A,,Mostly Cloudy,80,2013-04-18 08:00:00
5:00 AM,46.0,41.0,83,30.30,-9999.0,Calm,Calm,-,N/A,,Clear,0,2013-04-18 09:00:00
5:49 AM,55.4,42.8,63,30.28,-9999.0,East,8.1,-,N/A,,Mostly Cloudy,90,2013-04-18 09:49:00
6:00 AM,55.4,44.6,67,30.29,-9999.0,ENE,5.8,-,N/A,,Overcast,70,2013-04-18 10:00:00
6:06 AM,53.1,45.0,74,30.29,-9999.0,ENE,3.5,-,N/A,,Overcast,60,2013-04-18 10:06:00
6:25 AM,60.8,46.4,59,30.29,-9999.0,ESE,5.8,-,N/A,,Overcast,110,2013-04-18 10:25:00
7:00 AM,61.0,48.0,62,30.29,-9999.0,East,6.9,-,N/A,,Overcast,90,2013-04-18 11:00:00
8:00 AM,62.1,48.0,60,30.30,-9999.0,East,11.5,-,N/A,,Overcast,100,2013-04-18 12:00:00
10:00 AM,63.0,44.1,50,30.31,-9999.0,ESE,10.4,-,N/A,,Overcast,110,2013-04-18 14:00:00
11:00 AM,66.0,45.0,47,30.32,-9999.0,ESE,10.4,-,N/A,,Overcast,120,2013-04-18 15:00:00
12:00 PM,68.0,46.0,45,30.30,-9999.0,SE,12.7,17.3,N/A,,Overcast,130,2013-04-18 16:00:00
12:08 PM,69.8,46.4,43,30.30,-9999.0,SE,12.7,-,N/A,,Overcast,140,2013-04-18 16:08:00
1:00 PM,70.0,46.0,42,30.28,-9999.0,ESE,12.7,25.3,N/A,,Overcast,110,2013-04-18 17:00:00
2:00 PM,70.0,46.9,44,30.27,-9999.0,SE,12.7,21.9,N/A,,Overcast,130,2013-04-18 18:00:00
2:08 PM,-9999,-9999,N/A,-9999,-9999.0,North,-9999.0,-,N/A,,Unknown,0,2013-04-18 18:08:00
3:00 PM,66.0,48.0,52,30.25,-9999.0,SE,11.5,23.0,N/A,,Overcast,140,2013-04-18 19:00:00
4:00 PM,64.4,51.8,64,30.23,-9999.0,ESE,9.2,-,0.00,Rain,Light Rain,120,2013-04-18 20:00:00
4:06 PM,64.9,50.0,58,30.22,-9999.0,ESE,10.4,-,0.00,,Overcast,110,2013-04-18 20:06:00
5:00 PM,66.0,50.0,56,30.22,-9999.0,SE,11.5,-,N/A,,Overcast,130,2013-04-18 21:00:00
6:00 PM,64.9,51.1,61,30.19,-9999.0,ESE,10.4,-,N/A,,Overcast,120,2013-04-18 22:00:00
8:00 PM,64.9,53.1,65,30.15,-9999.0,SE,6.9,-,N/A,,Overcast,130,2013-04-19 00:00:00
9:00 PM,66.0,54.0,65,30.16,-9999.0,SE,8.1,-,N/A,,Overcast,130,2013-04-19 01:00:00
10:50 PM,68.0,57.2,68,30.11,-9999.0,SSE,6.9,-,N/A,,Overcast,150,2013-04-19 02:50:00
11:00 PM,69.1,57.0,65,30.11,-9999.0,SSE,8.1,-,N/A,,Overcast,150,2013-04-19 03:00:00
11:28 PM,68.0,57.2,68,30.11,-9999.0,SSE,6.9,-,N/A,,Overcast,150,2013-04-19 03:28:00